Theta_e
299 299 299 299 299 299 299 299 299 299 299 299 299 299 299 300 301 303 305 307 308 308 308 305 305 307 308 311 314 316 314 313 314 314 315 315 315 315 313 313 313 314 316 316 314
299 299 299 299 299 299 299 299 299 299 299 299 299 299 299 300 302 304 305 305 305 305 304 305 306 308 310 312 313 313 312 311 314 315 315 314 313 312 312 312 313 313 313 313 312
299 299 299 299 298 299 298 298 298 299 299 299 299 299 299 301 303 304 304 304 303 303 304 306 306 308 309 311 312 314 312 313 313 313 311 311 311 310 311 312 311 309 310 310 312
298 299 299 299 298 298 298 298 298 298 298 298 298 298 299 301 305 304 304 304 303 304 304 307 307 308 309 309 310 312 311 312 312 308 307 309 308 309 309 309 306 305 306 307 308
298 298 298 298 298 298 298 298 298 298 299 299 298 298 300 303 304 305 305 304 303 304 304 305 308 308 309 308 308 309 308 307 307 306 306 306 306 307 307 305 305 305 305 305 306
298 298 298 298 298 298 298 298 298 298 299 299 298 298 300 303 304 304 303 302 302 302 303 305 306 307 307 306 307 305 305 306 304 304 304 304 306 304 305 303 305 304 304 303 305
298 298 298 298 297 297 297 297 298 298 299 299 298 299 299 301 303 301 301 301 302 302 303 304 305 306 305 306 303 303 305 305 305 305 306 304 307 306 303 303 304 304 304 304 304
298 298 298 298 297 297 297 297 297 298 299 299 298 299 303 302 302 302 301 301 301 302 302 304 304 304 304 303 303 304 304 306 306 305 305 306 308 305 302 303 304 303 303 303 303
297 297 297 297 297 297 297 297 297 298 299 299 299 299 303 302 302 301 301 302 301 301 302 301 302 302 303 305 305 305 306 305 305 304 305 306 308 304 302 303 303 302 302 301 301
297 297 297 296 296 297 297 297 298 299 300 301 301 301 300 301 301 300 301 302 302 301 302 301 302 304 304 305 305 305 305 304 305 305 305 306 306 304 302 302 301 301 300 300 300
297 296 296 296 296 296 296 297 299 300 301 301 302 302 301 302 300 301 301 302 302 302 304 304 304 305 304 304 303 304 304 305 305 305 304 305 305 304 302 301 300 299 299 299 298
296 296 296 296 296 296 296 297 297 299 300 301 302 303 303 303 301 301 301 302 303 304 304 305 305 304 302 302 303 304 304 305 305 304 304 305 305 305 302 299 298 298 297 297 297
296 296 296 296 296 296 296 296 296 297 299 301 302 302 303 301 301 302 302 302 303 303 304 304 304 303 304 304 304 304 304 304 304 304 304 303 305 304 301 297 296 295 295 295 295
296 296 295 295 296 296 296 296 296 296 300 300 303 302 302 302 303 302 302 302 302 303 303 304 302 303 304 304 304 304 304 304 304 305 305 302 306 302 303 299 296 295 295 294 293
295 295 295 295 295 295 296 296 297 295 308 301 302 301 302 302 302 302 302 302 303 303 302 303 303 303 304 304 304 305 303 304 304 304 303 303 303 304 302 301 297 295 294 293 293
295 295 295 295 295 295 296 296 296 309 306 302 301 301 302 301 300 300 301 302 301 302 302 303 299 301 303 302 303 301 302 301 302 303 305 303 303 303 303 302 299 294 293 293 293
294 294 294 294 294 295 296 297 307 307 294 300 302 300 301 302 301 301 301 302 302 303 301 300 301 300 300 302 302 302 304 306 305 305 305 299 301 302 301 301 298 294 293 292 292
294 294 294 293 293 295 296 300 301 295 295 297 298 299 302 300 300 300 301 302 299 299 301 301 302 300 300 303 303 303 304 306 304 304 302 299 303 302 299 296 294 293 292 292 292
293 293 293 293 293 296 296 302 304 298 295 298 297 300 299 298 299 300 301 301 300 300 302 301 300 299 299 299 301 302 303 302 302 293 301 301 302 298 296 294 293 292 292 292 291
293 293 293 292 293 296 300 300 297 294 296 297 302 296 300 297 298 299 299 298 299 297 298 299 301 298 298 298 299 301 300 302 302 302 302 302 300 302 298 295 293 292 292 291 291
292 292 292 292 296 297 301 299 294 294 295 297 299 294 296 297 297 298 297 297 296 296 297 299 299 299 297 299 301 301 302 302 301 301 302 302 301 298 299 298 295 293 292 291 291
293 295 292 292 296 286 297 293 293 295 294 294 295 294 296 295 297 296 297 296 294 295 298 297 298 300 300 294 292 294 299 301 303 302 300 300 302 293 295 296 297 294 292 291 290
292 292 292 295 297 294 290 293 294 293 294 294 295 295 292 294 297 294 295 292 292 294 295 295 296 299 297 292 292 294 295 296 293 296 301 303 301 293 293 295 296 296 292 291 291
292 294 292 294 291 293 292 293 294 291 292 292 293 293 292 291 288 290 293 292 291 292 293 293 294 297 297 295 291 292 292 294 294 298 299 300 301 295 294 294 294 294 292 291 291
293 294 293 294 293 291 292 292 292 292 290 291 292 294 294 291 288 290 289 291 291 291 291 292 293 288 289 289 289 290 291 291 292 294 293 294 295 295 295 294 293 292 291 290 289
292 290 288 287 290 293 293 292 293 290 291 291 291 293 291 292 295 291 289 288 292 289 291 288 292 287 288 289 288 288 289 289 289 291 289 290 291 291 290 290 290 290 289 288 288
293 292 292 289 290 293 293 292 292 291 289 290 291 292 291 292 289 288 288 289 289 291 290 290 290 288 291 285 287 289 289 289 289 290 290 290 291 290 290 290 289 288 288 288 287
Wind_Speed
8 8 7 7 7 6 5 5 5 5 5 6 6 4 2 2 3 3 4 1 1 1 1 1 2 4 6 4 3 4 3 3 2 2 2 2 5 3 8 8 12 7 6 8 17
8 8 8 8 8 7 7 7 7 8 7 6 5 3 2 3 5 5 3 1 2 1 2 3 4 6 3 4 2 2 2 2 2 2 3 7 7 10 8 12 12 11 11 13 14
6 6 6 6 5 4 5 5 6 7 6 6 5 2 2 5 6 3 4 4 3 4 4 4 6 4 2 3 2 1 2 2 2 5 5 8 10 4 8 7 13 17 18 16 14
7 7 7 5 4 4 5 5 5 5 5 5 3 1 3 5 1 3 3 3 3 3 4 6 6 2 2 2 2 3 3 3 4 2 5 9 10 9 9 10 14 15 17 17 16
6 5 5 5 5 5 5 6 7 7 5 4 2 2 4 5 4 4 2 1 0 2 2 4 4 2 2 1 1 4 3 3 6 11 12 13 12 12 9 8 13 12 8 8 10
5 5 5 5 5 5 5 6 6 6 5 4 2 2 4 3 5 2 0 1 1 2 4 4 3 4 4 1 1 1 8 10 6 7 8 6 6 2 1 16 12 10 9 9 8
6 6 5 5 5 5 5 6 6 5 4 3 2 3 4 6 5 3 1 2 3 5 5 5 6 4 4 3 1 2 8 7 2 1 0 3 6 5 11 13 10 10 9 10 11
5 6 5 4 4 4 5 6 6 5 3 2 3 3 3 5 4 4 2 2 3 4 5 5 4 5 2 3 1 2 3 4 2 1 1 2 4 1 11 10 10 11 11 9 10
5 5 5 4 4 4 5 5 4 3 2 3 3 5 3 5 3 3 3 3 4 4 5 5 5 3 2 2 3 2 4 6 4 1 3 2 5 3 8 8 8 9 10 10 9
3 3 3 3 3 3 3 3 2 2 1 1 3 4 5 4 4 4 4 4 3 5 5 2 2 3 3 5 4 3 4 4 7 1 4 11 14 4 4 5 5 7 9 10 11
3 3 3 2 3 2 1 1 2 2 4 5 5 4 7 6 5 4 6 5 5 3 3 2 4 6 4 5 3 3 6 10 8 5 5 9 10 7 3 2 3 5 8 9 10
2 2 1 1 1 1 1 2 1 4 4 3 3 4 5 5 3 5 6 3 2 2 3 3 7 1 1 3 6 6 9 11 10 6 4 8 14 9 5 2 2 3 5 8 10
3 2 1 1 1 0 2 2 3 4 2 4 4 3 3 4 3 5 5 4 2 4 5 6 3 5 4 4 7 9 12 8 8 5 8 9 14 9 6 6 3 2 4 7 9
5 3 2 1 1 2 2 2 4 5 2 2 1 0 2 4 2 5 6 3 1 2 3 6 2 5 6 8 9 8 9 10 7 4 5 2 6 6 10 9 6 3 3 6 9
5 4 3 2 3 3 2 3 4 3 3 3 2 2 3 2 6 3 5 4 4 4 3 1 5 5 6 5 11 2 3 3 4 7 7 8 6 3 6 11 10 8 4 5 7
7 5 5 4 3 3 4 5 4 2 5 4 1 3 4 1 1 3 2 2 2 2 4 7 1 3 3 2 10 7 4 3 2 2 6 10 11 11 6 7 11 9 6 4 5
7 7 6 6 6 7 9 8 3 2 2 3 3 4 3 3 3 2 3 4 4 2 3 3 5 2 4 4 3 8 6 3 4 4 7 2 7 15 1 3 13 15 10 6 5
8 8 8 8 8 10 13 3 3 0 5 2 2 3 4 2 2 2 2 4 5 2 1 3 4 6 6 9 5 14 8 5 6 4 2 3 7 1 3 4 13 13 10 7 5
10 9 9 9 10 13 6 2 6 5 5 10 3 3 3 2 1 4 6 4 2 9 6 4 4 1 0 1 2 4 9 8 4 1 4 8 8 4 6 8 11 10 8 7 4
12 11 10 10 12 14 2 4 3 3 6 3 6 2 6 5 5 6 6 2 2 2 1 0 5 1 1 1 2 4 3 2 3 6 10 6 6 8 8 10 10 10 10 8 5
14 9 11 13 14 6 3 5 3 5 5 6 6 5 3 5 5 4 2 2 1 3 1 1 2 1 1 6 6 4 5 5 3 4 8 12 7 1 1 13 15 17 15 11 6
14 4 15 20 4 1 3 5 5 6 5 2 3 2 5 6 5 4 4 0 3 6 4 2 1 5 6 2 2 4 5 9 8 9 4 5 14 2 4 9 18 19 14 10 8
14 6 16 23 4 4 1 2 5 5 5 5 5 1 2 4 3 3 3 1 4 6 6 6 3 4 4 2 2 6 5 3 1 1 15 11 13 2 1 5 15 21 15 10 8
12 4 5 13 4 3 5 4 5 3 4 4 4 5 3 2 2 3 5 4 3 5 5 6 5 7 12 11 0 5 6 7 4 5 12 15 17 3 6 7 12 16 15 14 10
9 5 9 5 6 5 3 4 5 6 3 6 2 5 7 4 3 4 2 2 4 3 5 4 6 5 6 10 8 12 13 13 11 10 10 18 12 6 9 9 16 18 14 10 13
11 7 8 6 6 15 6 6 9 4 8 5 4 11 8 6 6 8 6 3 5 3 6 2 4 2 5 8 8 12 18 16 19 19 15 22 26 15 19 20 16 19 19 17 14
22 14 9 10 8 7 6 8 10 11 6 2 10 6 8 8 5 2 4 2 2 7 8 5 4 3 8 4 7 10 14 21 17 15 16 15 20 10 10 13 17 19 14 13 16
Wind_Direction
337 336 340 348 349 344 345 358 357 352 358 7 17 20 57 114 116 114 98 128 180 203 246 126 129 109 101 80 90 123 241 269 274 256 48 26 338 310 320 293 320 321 296 307 338
347 345 350 346 350 352 357 357 4 3 2 7 22 27 74 111 109 101 103 69 73 116 119 135 131 122 80 102 69 225 251 339 339 279 285 306 302 316 312 312 306 310 301 308 323
343 340 340 350 356 355 358 4 5 357 357 6 14 27 108 131 107 94 90 83 78 98 106 124 127 111 85 137 112 141 275 53 279 273 291 298 300 308 310 302 324 315 302 305 301
346 345 339 343 349 353 358 355 353 1 2 355 12 65 129 131 114 127 110 97 86 102 117 124 126 103 132 166 121 250 267 255 287 309 308 295 308 288 280 313 323 318 301 295 301
343 342 341 340 346 354 353 351 353 349 357 357 8 82 117 99 109 137 117 87 119 136 147 143 115 112 143 108 168 242 294 269 269 286 281 282 273 274 283 336 340 356 356 334 308
332 341 342 347 356 1 354 351 346 345 354 358 12 115 124 109 137 142 67 32 167 152 149 142 140 130 104 96 273 342 281 279 283 286 265 280 286 227 141 330 334 347 348 348 327
330 332 343 351 3 354 346 342 339 348 359 5 39 93 96 132 139 122 110 140 133 141 137 137 139 138 144 136 356 304 296 298 178 259 333 282 230 189 341 340 337 346 339 327 322
328 334 343 350 355 343 337 339 345 2 18 42 89 97 92 139 138 132 167 135 124 127 130 137 131 131 107 125 75 260 266 276 134 306 144 266 262 38 356 353 343 342 337 327 317
335 343 344 344 345 340 335 339 345 6 37 75 95 122 117 153 158 138 140 150 135 127 116 129 145 109 124 212 223 202 268 257 271 122 322 302 281 357 358 358 352 347 344 341 333
324 341 345 347 349 343 339 339 343 20 54 80 106 120 146 158 140 125 140 143 148 142 121 149 109 187 168 205 253 193 236 242 265 110 295 282 272 282 350 351 359 358 352 356 354
322 339 337 355 360 2 355 66 78 55 70 100 104 102 135 141 139 143 152 138 131 124 178 56 232 222 191 216 235 230 251 263 268 283 287 273 272 267 263 322 352 18 14 5 8
301 297 284 351 357 9 92 154 172 139 96 99 112 114 147 155 130 155 160 174 165 166 142 186 242 209 208 176 210 228 256 265 275 263 261 280 276 267 227 201 7 19 39 20 17
262 242 235 313 351 93 111 161 164 153 95 55 103 141 180 194 167 168 171 157 132 170 204 235 108 111 179 198 210 229 241 255 270 307 253 286 273 218 191 168 143 68 62 51 39
252 223 226 276 117 100 115 133 149 145 117 123 129 287 174 164 122 158 171 163 151 229 201 257 137 226 219 240 217 253 229 244 264 267 273 302 291 220 198 187 187 151 90 62 50
245 211 200 174 137 122 143 139 138 125 298 116 139 171 166 202 138 157 178 162 219 182 194 100 184 196 217 230 191 243 136 208 246 246 295 223 251 230 180 209 196 168 128 70 56
227 203 190 175 161 156 148 142 123 51 250 152 181 166 167 95 125 133 148 161 130 207 240 261 311 248 248 182 201 139 118 81 74 257 255 247 225 268 205 233 176 162 146 109 69
205 193 184 171 161 155 150 141 63 200 21 179 182 187 188 155 156 181 166 188 216 189 227 241 213 216 203 196 157 187 178 234 231 198 246 61 229 256 233 202 184 162 149 126 90
199 189 180 172 164 158 150 95 182 34 208 121 126 118 199 154 156 141 150 237 208 177 247 264 252 189 170 227 224 203 210 226 252 241 321 138 237 232 4 141 147 143 137 127 108
188 178 175 170 169 165 154 132 206 197 143 154 103 166 215 205 206 179 217 232 216 189 221 206 255 122 265 331 251 170 218 264 272 136 273 250 251 188 132 135 144 146 154 149 127
177 167 171 169 166 162 103 232 195 139 134 178 193 208 190 192 186 202 196 161 161 191 358 54 282 51 73 239 211 249 141 177 212 248 246 235 265 263 192 180 177 178 180 171 147
168 151 173 168 159 162 190 220 192 189 158 187 196 145 213 182 203 200 165 107 96 122 136 188 249 151 210 205 231 191 218 228 275 247 263 270 263 93 261 200 196 195 191 182 166
167 140 169 163 128 164 191 191 163 159 178 123 112 109 182 163 176 222 215 115 161 150 168 184 212 254 249 113 328 294 275 245 238 233 238 280 263 169 270 247 209 204 199 190 185
158 114 169 174 169 207 222 173 189 148 183 167 166 159 134 161 212 203 180 138 176 185 175 183 205 283 248 171 181 233 212 198 160 308 248 254 258 67 59 177 204 207 199 195 212
155 128 152 199 215 164 148 199 176 171 141 140 130 116 116 104 28 184 215 188 195 206 177 171 198 228 257 288 117 228 205 218 208 246 262 242 270 221 211 208 205 205 209 216 249
175 181 170 179 215 176 198 117 136 169 193 173 143 202 161 147 172 218 216 211 211 205 165 201 237 203 263 261 253 264 254 230 214 226 234 264 251 240 219 217 216 217 221 240 279
177 156 150 137 140 171 189 199 169 179 161 201 210 192 178 165 191 192 158 214 203 161 174 183 247 175 271 255 260 268 254 247 242 243 248 259 265 261 261 254 248 246 258 270 278
202 179 167 157 139 147 200 186 193 152 199 182 197 142 194 228 182 124 157 153 164 169 183 179 185 176 265 11 317 270 252 234 232 233 229 243 253 260 245 246 239 251 247 269 280